map of DUB home
DUB - Airport
Location
City:  Dublin, County Dublin, Leinster, Ireland
Name:Dublin International Airport
ICAO:EIDW
IATA:DUB

Details
Type:Airport (Aerodrome, Airfield)
Use:International (customs port of entry)
Latitude:5325'17"N (53.421389)
Longitude:616'12"W (-6.269999)
Elevation:242 ft (74 m)
Variation:3.06W (WMM2015 magnetic declination)
0.16 annual change
Runways:3
Longest:8652 × 148 ft (2637 × 45 m), paved

Time
Time Zone:UTC+0 (DST+1)
Local Time:

Weather
METAR:EIDW 251300Z 11007KT 070V140 9999 FEW030 BKN250 18/11 Q1021 NOSIG
TAF:EIDW 251100Z 2512/2612 VRB03KT 9999 FEW020
BECMG 2514/2516 13007KT PROB30
TEMPO 2520/2608 0800 FG BKN001
BECMG 2519/2522 17006KT
BECMG 2608/2611 15010KT

Related Locations
Nearby:
Farthest:SZS: 11917 mi / 19178 km
Ryan's Creek, Stewart Island, STL, NZ

Find:

   beyond  
but within

Other Information
Maps:
NOTAMs:
Links:
Sources:

  
flag of Ireland
flag of Leinster
flag of Dublin
  

Sectional Chart

Flight Planning
at skyvector.com

Satellite Image

Google Maps Satellite view

 

Copyright © 2004-2017 Karl L. Swartz. All rights reserved.
The Great Circle Mapper name and logo are trademarks of the Great Circle Mapper.
All other trademarks mentioned herein belong to their respective owners.
Please see credits for attibutions and further copyright information.

  Follow gcmap on Facebook Follow gcmap on Twitter Follow gcmap on Google+ GCmap on LinkedIn

hCard Microformat

Geo Microformat